User: anonymous   Login
Location: Elmsmere
(40.9284°N, 73.8207°W)
Time: 00:50:48
(UTC+00:00)
Language:

STARLINK-2701 - Orbit

View from above orbital plane
View from above orbital plane
View from above satellite
View from above satellite

Ground track
Ground track

The orbit data is extracted from the following two-line orbital elements,

1 48656C 21044U   21296.85380793  .00007524  00000-0  50410-3 0  2964
2 48656  53.0536  94.5723 0001734  84.8981  11.8975 15.06391224    11
Epoch (UTC): 23 October 2021 20:29:29
Eccentricity: 0.0001734
inclination: 53.0536°
perigee height: 546 km
apogee height: 548 km
right ascension of ascending node: 94.5723°
argument of perigee: 84.8981°
revolutions per day: 15.06391224
mean anomaly at epoch: 11.8975°
orbit number at epoch: 1

The dashed part of the orbit path shows where the satellite is in the earth's shadow,  

DLR